Time,TemperatureF,DewpointF,PressureIn,WindDirection,WindDirectionDegrees,WindSpeedMPH,WindSpeedGustMPH,Humidity,HourlyPrecipIn,Conditions,Clouds,dailyrainin,SoftwareType,DateUTC
2013-04-20 00:00:00,33.6,23.4,30.15,NNW,330,0.0,0.0,66,0.00,,,0.00,Wunderground v.1.15,2013-04-20 05:00:00,
2013-04-20 00:05:00,33.5,23.4,30.15,NNW,330,0.0,0.0,66,0.00,,,0.00,Wunderground v.1.15,2013-04-20 05:05:00,
2013-04-20 00:15:00,33.3,23.5,30.15,NNW,330,0.0,0.0,67,0.00,,,0.00,Wunderground v.1.15,2013-04-20 05:15:00,
2013-04-20 00:25:00,32.7,23.3,30.15,NNW,330,0.0,0.0,68,0.00,,,0.00,Wunderground v.1.15,2013-04-20 05:25:00,
2013-04-20 00:35:00,32.1,23.1,30.16,NNW,330,0.0,0.0,69,0.00,,,0.00,Wunderground v.1.15,2013-04-20 05:35:00,
2013-04-20 00:45:00,31.1,22.5,30.16,NNW,330,0.0,0.0,70,0.00,,,0.00,Wunderground v.1.15,2013-04-20 05:45:00,
2013-04-20 01:00:00,31.3,23.3,30.16,NNW,330,0.0,0.0,72,0.00,,,0.00,Wunderground v.1.15,2013-04-20 06:00:00,
2013-04-20 01:05:00,31.6,23.6,30.16,NNW,330,0.0,0.0,72,0.00,,,0.00,Wunderground v.1.15,2013-04-20 06:05:00,
2013-04-20 01:15:00,31.8,23.1,30.16,NNW,330,0.0,0.0,70,0.00,,,0.00,Wunderground v.1.15,2013-04-20 06:15:00,
2013-04-20 01:25:00,31.2,22.9,30.16,NNW,330,0.0,0.0,71,0.00,,,0.00,Wunderground v.1.15,2013-04-20 06:25:00,
2013-04-20 01:30:00,30.7,23.1,30.17,NNW,330,0.0,0.0,73,0.00,,,0.00,Wunderground v.1.15,2013-04-20 06:30:00,
2013-04-20 01:40:00,29.9,22.6,30.17,NNW,330,0.0,0.0,74,0.00,,,0.00,Wunderground v.1.15,2013-04-20 06:40:00,
2013-04-20 01:50:00,30.2,22.9,30.17,NNW,330,0.0,0.0,74,0.00,,,0.00,Wunderground v.1.15,2013-04-20 06:50:00,
2013-04-20 02:00:00,29.9,22.9,30.17,NNW,330,0.0,0.0,75,0.00,,,0.00,Wunderground v.1.15,2013-04-20 07:00:00,
2013-04-20 02:15:00,29.2,22.9,30.17,NNW,330,0.0,0.0,77,0.00,,,0.00,Wunderground v.1.15,2013-04-20 07:15:00,
2013-04-20 02:25:00,29.6,22.6,30.17,NNW,330,0.0,0.0,75,0.00,,,0.00,Wunderground v.1.15,2013-04-20 07:25:00,
2013-04-20 02:35:00,29.5,22.9,30.17,NNW,330,0.0,0.0,76,0.00,,,0.00,Wunderground v.1.15,2013-04-20 07:35:00,
2013-04-20 02:40:00,29.5,22.9,30.18,NNW,330,0.0,0.0,76,0.00,,,0.00,Wunderground v.1.15,2013-04-20 07:40:00,
2013-04-20 02:45:00,29.5,22.6,30.17,NNW,330,0.0,0.0,75,0.00,,,0.00,Wunderground v.1.15,2013-04-20 07:45:00,
2013-04-20 02:55:00,29.5,22.9,30.17,NNW,330,0.0,0.0,76,0.00,,,0.00,Wunderground v.1.15,2013-04-20 07:55:00,
2013-04-20 03:05:00,30.2,22.9,30.17,NNW,330,0.0,0.0,74,0.00,,,0.00,Wunderground v.1.15,2013-04-20 08:05:00,
2013-04-20 03:15:00,30.4,23.1,30.18,NNW,330,0.0,0.0,74,0.00,,,0.00,Wunderground v.1.15,2013-04-20 08:15:00,
2013-04-20 03:26:00,30.4,22.8,30.18,NNW,330,0.0,0.0,73,0.00,,,0.00,Wunderground v.1.15,2013-04-20 08:26:00,
2013-04-20 03:35:00,30.5,22.5,30.18,NNW,330,0.0,0.0,72,0.00,,,0.00,Wunderground v.1.15,2013-04-20 08:35:00,
2013-04-20 03:45:00,30.4,22.4,30.18,NNW,330,0.0,0.0,72,0.00,,,0.00,Wunderground v.1.15,2013-04-20 08:45:00,
2013-04-20 03:50:00,30.3,22.4,30.18,NNW,330,0.0,0.0,72,0.00,,,0.00,Wunderground v.1.15,2013-04-20 08:50:00,
2013-04-20 04:00:00,30.1,22.5,30.19,NNW,330,0.0,0.0,73,0.00,,,0.00,Wunderground v.1.15,2013-04-20 09:00:00,
2013-04-20 04:10:00,30.3,23.0,30.19,NNW,330,0.0,0.0,74,0.00,,,0.00,Wunderground v.1.15,2013-04-20 09:10:00,
2013-04-20 04:20:00,30.1,23.1,30.19,NNW,330,0.0,0.0,75,0.00,,,0.00,Wunderground v.1.15,2013-04-20 09:20:00,
2013-04-20 04:25:00,30.1,23.1,30.19,North,355,0.0,0.0,75,0.00,,,0.00,Wunderground v.1.15,2013-04-20 09:25:00,
2013-04-20 04:35:00,29.9,22.9,30.20,North,356,0.0,0.0,75,0.00,,,0.00,Wunderground v.1.15,2013-04-20 09:35:00,
2013-04-20 04:45:00,29.6,23.0,30.20,North,356,0.0,0.0,76,0.00,,,0.00,Wunderground v.1.15,2013-04-20 09:45:00,
2013-04-20 04:50:00,29.6,23.0,30.20,North,355,0.0,0.0,76,0.00,,,0.00,Wunderground v.1.15,2013-04-20 09:50:00,
2013-04-20 04:55:00,29.6,22.6,30.20,North,355,0.0,0.0,75,0.00,,,0.00,Wunderground v.1.15,2013-04-20 09:55:00,
2013-04-20 05:05:00,29.5,22.2,30.21,North,356,0.0,0.0,74,0.00,,,0.00,Wunderground v.1.15,2013-04-20 10:05:00,
2013-04-20 05:15:00,29.5,21.9,30.21,NNW,329,0.0,0.0,73,0.00,,,0.00,Wunderground v.1.15,2013-04-20 10:15:00,
2013-04-20 05:25:00,29.5,21.9,30.22,NNE,19,0.0,0.0,73,0.00,,,0.00,Wunderground v.1.15,2013-04-20 10:25:00,
2013-04-20 05:30:00,29.3,21.7,30.22,NNE,19,0.0,0.0,73,0.00,,,0.00,Wunderground v.1.15,2013-04-20 10:30:00,
2013-04-20 05:40:00,28.9,21.3,30.22,NNE,19,0.0,0.0,73,0.00,,,0.00,Wunderground v.1.15,2013-04-20 10:40:00,
2013-04-20 05:45:00,28.7,21.1,30.22,NNE,19,0.0,0.0,73,0.00,,,0.00,Wunderground v.1.15,2013-04-20 10:45:00,
2013-04-20 06:00:00,28.3,21.4,30.22,NNE,19,0.0,0.0,75,0.00,,,0.00,Wunderground v.1.15,2013-04-20 11:00:00,
2013-04-20 06:05:00,28.3,21.1,30.22,NNE,19,0.0,0.0,74,0.00,,,0.00,Wunderground v.1.15,2013-04-20 11:05:00,
2013-04-20 06:10:00,28.2,21.3,30.22,NNE,19,0.0,0.0,75,0.00,,,0.00,Wunderground v.1.15,2013-04-20 11:10:00,
2013-04-20 06:20:00,28.1,21.2,30.22,NNE,19,0.0,0.0,75,0.00,,,0.00,Wunderground v.1.15,2013-04-20 11:20:00,
2013-04-20 06:25:00,28.1,21.2,30.22,NNE,19,0.0,0.0,75,0.00,,,0.00,Wunderground v.1.15,2013-04-20 11:25:00,
2013-04-20 06:30:00,28.1,21.2,30.22,NNE,19,0.0,0.0,75,0.00,,,0.00,Wunderground v.1.15,2013-04-20 11:30:00,
2013-04-20 06:41:00,28.0,21.1,30.24,NNE,19,0.0,0.0,75,0.00,,,0.00,Wunderground v.1.15,2013-04-20 11:41:00,
2013-04-20 06:50:00,27.4,20.8,30.24,NNE,19,0.0,0.0,76,0.00,,,0.00,Wunderground v.1.15,2013-04-20 11:50:00,
2013-04-20 07:00:00,26.9,21.0,30.24,NNE,19,0.0,0.0,78,0.00,,,0.00,Wunderground v.1.15,2013-04-20 12:00:00,
2013-04-20 07:05:00,27.2,21.2,30.24,NNE,19,0.0,0.0,78,0.00,,,0.00,Wunderground v.1.15,2013-04-20 12:05:00,
2013-04-20 07:15:00,27.3,21.3,30.25,NNE,19,0.0,0.0,78,0.00,,,0.00,Wunderground v.1.15,2013-04-20 12:15:00,
2013-04-20 07:20:00,27.9,22.2,30.24,NNE,19,0.0,0.0,79,0.00,,,0.00,Wunderground v.1.15,2013-04-20 12:20:00,
2013-04-20 07:30:00,29.1,22.8,30.25,NNE,20,0.0,0.0,77,0.00,,,0.00,Wunderground v.1.15,2013-04-20 12:30:00,
2013-04-20 07:35:00,29.4,22.5,30.25,NE,51,0.0,0.0,75,0.00,,,0.00,Wunderground v.1.15,2013-04-20 12:35:00,
2013-04-20 07:45:00,30.1,22.5,30.26,NE,51,0.0,0.0,73,0.00,,,0.00,Wunderground v.1.15,2013-04-20 12:45:00,
2013-04-20 07:50:00,30.5,22.5,30.27,NE,51,0.0,0.0,72,0.00,,,0.00,Wunderground v.1.15,2013-04-20 12:50:00,
2013-04-20 08:00:00,30.6,22.3,30.27,ENE,58,0.0,0.0,71,0.00,,,0.00,Wunderground v.1.15,2013-04-20 13:00:00,
2013-04-20 08:10:00,30.8,22.2,30.28,East,96,0.0,0.0,70,0.00,,,0.00,Wunderground v.1.15,2013-04-20 13:10:00,
2013-04-20 08:15:00,31.3,22.6,30.28,East,84,0.0,0.0,70,0.00,,,0.00,Wunderground v.1.15,2013-04-20 13:15:00,
2013-04-20 08:25:00,31.8,22.8,30.28,ENE,72,0.0,1.0,69,0.00,,,0.00,Wunderground v.1.15,2013-04-20 13:25:00,
2013-04-20 08:35:00,31.9,22.9,30.28,East,96,0.0,1.0,69,0.00,,,0.00,Wunderground v.1.15,2013-04-20 13:35:00,
2013-04-20 08:40:00,32.1,23.1,30.27,East,82,0.0,0.0,69,0.00,,,0.00,Wunderground v.1.15,2013-04-20 13:40:00,
2013-04-20 08:50:00,32.9,23.5,30.27,NNE,27,0.0,1.0,68,0.00,,,0.00,Wunderground v.1.15,2013-04-20 13:50:00,
2013-04-20 08:55:00,32.9,22.4,30.28,East,99,1.0,1.0,65,0.00,,,0.00,Wunderground v.1.15,2013-04-20 13:55:00,
2013-04-20 09:05:00,33.0,22.5,30.28,East,99,0.0,1.0,65,0.00,,,0.00,Wunderground v.1.15,2013-04-20 14:05:00,
2013-04-20 09:15:00,32.8,22.7,30.28,ENE,68,0.0,1.0,66,0.00,,,0.00,Wunderground v.1.15,2013-04-20 14:15:00,
2013-04-20 09:20:00,32.7,22.6,30.28,East,84,0.0,0.0,66,0.00,,,0.00,Wunderground v.1.15,2013-04-20 14:20:00,
2013-04-20 09:30:00,32.9,22.4,30.28,ENE,75,0.0,1.0,65,0.00,,,0.00,Wunderground v.1.15,2013-04-20 14:30:00,
2013-04-20 09:35:00,32.8,22.0,30.29,ESE,113,1.0,1.0,64,0.00,,,0.00,Wunderground v.1.15,2013-04-20 14:35:00,
2013-04-20 09:50:00,32.8,21.2,30.30,East,79,0.0,0.0,62,0.00,,,0.00,Wunderground v.1.15,2013-04-20 14:50:00,
2013-04-20 09:55:00,32.8,21.2,30.30,East,96,0.0,1.0,62,0.00,,,0.00,Wunderground v.1.15,2013-04-20 14:55:00,
2013-04-20 10:01:00,32.9,20.5,30.30,East,86,1.0,1.0,60,0.00,,,0.00,Wunderground v.1.15,2013-04-20 15:01:00,
2013-04-20 10:10:00,33.1,21.1,30.30,East,80,1.0,1.0,61,0.00,,,0.00,Wunderground v.1.15,2013-04-20 15:10:00,
2013-04-20 10:15:00,33.4,21.8,30.30,East,97,1.0,1.0,62,0.00,,,0.00,Wunderground v.1.15,2013-04-20 15:15:00,
2013-04-20 10:25:00,33.9,21.9,30.30,East,84,1.0,1.0,61,0.00,,,0.00,Wunderground v.1.15,2013-04-20 15:25:00,
2013-04-20 10:35:00,34.4,21.9,30.31,ENE,71,1.0,1.0,60,0.00,,,0.00,Wunderground v.1.15,2013-04-20 15:35:00,
2013-04-20 10:40:00,34.6,22.1,30.31,East,80,1.0,1.0,60,0.00,,,0.00,Wunderground v.1.15,2013-04-20 15:40:00,
2013-04-20 10:51:00,35.4,22.1,30.31,ENE,71,1.0,1.0,58,0.00,,,0.00,Wunderground v.1.15,2013-04-20 15:51:00,
2013-04-20 11:00:00,35.2,23.1,30.31,East,94,1.0,1.0,61,0.00,,,0.00,Wunderground v.1.15,2013-04-20 16:00:00,
2013-04-20 11:10:00,35.6,23.5,30.31,ENE,64,1.0,1.0,61,0.00,,,0.00,Wunderground v.1.15,2013-04-20 16:10:00,
2013-04-20 11:15:00,35.8,22.9,30.31,ENE,64,0.0,2.0,59,0.00,,,0.00,Wunderground v.1.15,2013-04-20 16:15:00,
2013-04-20 11:25:00,36.1,21.9,30.31,South,176,0.0,1.0,56,0.00,,,0.00,Wunderground v.1.15,2013-04-20 16:25:00,
2013-04-20 11:35:00,36.6,22.4,30.31,SSE,152,0.0,0.0,56,0.00,,,0.00,Wunderground v.1.15,2013-04-20 16:35:00,
2013-04-20 11:45:00,37.3,22.6,30.31,East,89,1.0,2.0,55,0.00,,,0.00,Wunderground v.1.15,2013-04-20 16:45:00,
2013-04-20 11:50:00,37.7,22.5,30.31,SE,145,0.0,0.0,54,0.00,,,0.00,Wunderground v.1.15,2013-04-20 16:50:00,
2013-04-20 12:01:00,38.6,22.5,30.30,ENE,77,1.0,2.0,52,0.00,,,0.00,Wunderground v.1.15,2013-04-20 17:01:00,
2013-04-20 12:10:00,38.8,19.8,30.30,ENE,75,2.0,2.0,46,0.00,,,0.00,Wunderground v.1.15,2013-04-20 17:10:00,
2013-04-20 12:15:00,38.7,20.2,30.30,ENE,63,2.0,3.0,47,0.00,,,0.00,Wunderground v.1.15,2013-04-20 17:15:00,
2013-04-20 12:20:00,38.5,21.5,30.29,ENE,62,2.0,2.0,50,0.00,,,0.00,Wunderground v.1.15,2013-04-20 17:20:00,
2013-04-20 12:30:00,38.7,21.6,30.28,ESE,112,2.0,2.0,50,0.00,,,0.00,Wunderground v.1.15,2013-04-20 17:30:00,
2013-04-20 12:40:00,39.4,22.8,30.28,ESE,103,1.0,2.0,51,0.00,,,0.00,Wunderground v.1.15,2013-04-20 17:40:00,
2013-04-20 12:47:00,39.7,22.6,30.28,SE,130,1.0,2.0,50,0.00,,,0.00,Wunderground v.1.15,2013-04-20 17:47:00,
2013-04-20 12:55:00,41.1,24.8,30.27,ESE,105,1.0,3.0,52,0.00,,,0.00,Wunderground v.1.15,2013-04-20 17:55:00,
2013-04-20 13:00:00,41.5,21.7,30.27,ESE,123,1.0,2.0,45,0.00,,,0.00,Wunderground v.1.15,2013-04-20 18:00:00,
2013-04-20 13:10:00,41.9,22.6,30.27,ENE,68,1.0,2.0,46,0.00,,,0.00,Wunderground v.1.15,2013-04-20 18:10:00,
2013-04-20 13:16:00,42.0,22.7,30.26,SSE,149,1.0,2.0,46,0.00,,,0.00,Wunderground v.1.15,2013-04-20 18:16:00,
2013-04-20 13:31:00,42.7,21.2,30.26,SSE,149,1.0,1.0,42,0.00,,,0.00,Wunderground v.1.15,2013-04-20 18:31:00,
2013-04-20 13:40:00,42.0,20.0,30.25,East,81,2.0,2.0,41,0.00,,,0.00,Wunderground v.1.15,2013-04-20 18:40:00,
2013-04-20 13:50:00,42.0,21.1,30.25,SSE,166,1.0,2.0,43,0.00,,,0.00,Wunderground v.1.15,2013-04-20 18:50:00,
2013-04-20 13:55:00,42.0,21.1,30.25,SE,145,1.0,2.0,43,0.00,,,0.00,Wunderground v.1.15,2013-04-20 18:55:00,
2013-04-20 14:01:00,42.0,20.5,30.25,ENE,78,2.0,3.0,42,0.00,,,0.00,Wunderground v.1.15,2013-04-20 19:01:00,
2013-04-20 14:10:00,42.2,20.7,30.25,East,99,1.0,1.0,42,0.00,,,0.00,Wunderground v.1.15,2013-04-20 19:10:00,
2013-04-20 14:20:00,42.8,21.3,30.25,SE,124,2.0,2.0,42,0.00,,,0.00,Wunderground v.1.15,2013-04-20 19:20:00,
2013-04-20 14:25:00,43.1,22.1,30.25,ESE,109,2.0,2.0,43,0.00,,,0.00,Wunderground v.1.15,2013-04-20 19:25:00,
2013-04-20 14:35:00,43.1,21.0,30.24,ESE,104,2.0,3.0,41,0.00,,,0.00,Wunderground v.1.15,2013-04-20 19:35:00,
2013-04-20 14:45:00,43.3,21.1,30.23,ESE,121,2.0,3.0,41,0.00,,,0.00,Wunderground v.1.15,2013-04-20 19:45:00,
2013-04-20 14:52:00,43.8,22.7,30.23,South,176,2.0,2.0,43,0.00,,,0.00,Wunderground v.1.15,2013-04-20 19:52:00,
2013-04-20 15:00:00,44.8,21.3,30.23,ENE,72,1.0,4.0,39,0.00,,,0.00,Wunderground v.1.15,2013-04-20 20:00:00,
2013-04-20 15:10:00,45.0,22.7,30.22,East,85,2.0,2.0,41,0.00,,,0.00,Wunderground v.1.15,2013-04-20 20:10:00,
2013-04-20 15:22:00,45.3,23.0,30.22,East,100,3.0,6.0,41,0.00,,,0.00,Wunderground v.1.15,2013-04-20 20:22:00,
2013-04-20 15:30:00,46.3,23.3,30.22,ENE,64,2.0,3.0,40,0.00,,,0.00,Wunderground v.1.15,2013-04-20 20:30:00,
2013-04-20 15:40:00,46.2,23.8,30.21,East,93,2.0,2.0,41,0.00,,,0.00,Wunderground v.1.15,2013-04-20 20:40:00,
2013-04-20 15:52:00,46.9,25.0,30.21,East,79,2.0,2.0,42,0.00,,,0.00,Wunderground v.1.15,2013-04-20 20:52:00,
2013-04-20 16:00:00,47.1,24.0,30.21,SSE,148,1.0,1.0,40,0.00,,,0.00,Wunderground v.1.15,2013-04-20 21:00:00,
2013-04-20 16:06:00,47.2,24.7,30.21,SE,124,2.0,2.0,41,0.00,,,0.00,Wunderground v.1.15,2013-04-20 21:06:00,
2013-04-20 16:15:00,47.4,25.4,30.21,ENE,66,2.0,2.0,42,0.00,,,0.00,Wunderground v.1.15,2013-04-20 21:15:00,
2013-04-20 16:25:00,47.1,25.2,30.20,ESE,113,1.0,1.0,42,0.00,,,0.00,Wunderground v.1.15,2013-04-20 21:25:00,
2013-04-20 16:30:00,47.3,24.8,30.20,ESE,120,1.0,3.0,41,0.00,,,0.00,Wunderground v.1.15,2013-04-20 21:30:00,
2013-04-20 16:40:00,47.2,24.1,30.20,SE,126,2.0,2.0,40,0.00,,,0.00,Wunderground v.1.15,2013-04-20 21:40:00,
2013-04-20 16:45:00,47.2,24.7,30.20,East,98,1.0,2.0,41,0.00,,,0.00,Wunderground v.1.15,2013-04-20 21:45:00,
2013-04-20 16:55:00,47.1,24.6,30.20,SE,134,2.0,2.0,41,0.00,,,0.00,Wunderground v.1.15,2013-04-20 21:55:00,
2013-04-20 17:11:00,47.3,22.9,30.20,East,93,2.0,2.0,38,0.00,,,0.00,Wunderground v.1.15,2013-04-20 22:11:00,
2013-04-20 17:17:00,47.5,23.1,30.20,SE,138,2.0,2.0,38,0.00,,,0.00,Wunderground v.1.15,2013-04-20 22:17:00,
2013-04-20 17:25:00,47.3,22.9,30.19,ENE,78,2.0,2.0,38,0.00,,,0.00,Wunderground v.1.15,2013-04-20 22:25:00,
2013-04-20 17:32:00,47.2,22.9,30.19,ESE,108,2.0,2.0,38,0.00,,,0.00,Wunderground v.1.15,2013-04-20 22:32:00,
2013-04-20 17:40:00,47.4,24.3,30.19,SE,142,1.0,1.0,40,0.00,,,0.00,Wunderground v.1.15,2013-04-20 22:40:00,
2013-04-20 17:50:00,47.3,24.2,30.19,SE,136,1.0,3.0,40,0.00,,,0.00,Wunderground v.1.15,2013-04-20 22:50:00,
2013-04-20 17:55:00,47.4,24.3,30.19,East,86,1.0,3.0,40,0.00,,,0.00,Wunderground v.1.15,2013-04-20 22:55:00,
2013-04-20 18:05:00,47.0,23.3,30.18,ESE,115,2.0,3.0,39,0.00,,,0.00,Wunderground v.1.15,2013-04-20 23:05:00,
2013-04-20 18:13:00,47.0,24.5,30.19,SE,144,2.0,2.0,41,0.00,,,0.00,Wunderground v.1.15,2013-04-20 23:13:00,
2013-04-20 18:20:00,46.9,24.4,30.19,ESE,115,1.0,1.0,41,0.00,,,0.00,Wunderground v.1.15,2013-04-20 23:20:00,
2013-04-20 18:27:00,46.9,24.4,30.19,ESE,121,1.0,3.0,41,0.00,,,0.00,Wunderground v.1.15,2013-04-20 23:27:00,
2013-04-20 18:35:00,46.8,24.3,30.19,SE,132,1.0,1.0,41,0.00,,,0.00,Wunderground v.1.15,2013-04-20 23:35:00,
2013-04-20 18:45:00,46.7,24.8,30.19,East,82,1.0,1.0,42,0.00,,,0.00,Wunderground v.1.15,2013-04-20 23:45:00,
2013-04-20 18:58:00,46.7,24.8,30.19,SE,138,0.0,1.0,42,0.00,,,0.00,Wunderground v.1.15,2013-04-20 23:58:00,
2013-04-20 19:05:00,46.5,24.6,30.19,East,94,1.0,3.0,42,0.00,,,0.00,Wunderground v.1.15,2013-04-21 00:05:00,
2013-04-20 19:15:00,46.4,25.6,30.18,East,99,1.0,1.0,44,0.00,,,0.00,Wunderground v.1.15,2013-04-21 00:15:00,
2013-04-20 19:20:00,46.3,25.6,30.19,ESE,105,1.0,1.0,44,0.00,,,0.00,Wunderground v.1.15,2013-04-21 00:20:00,
2013-04-20 19:30:00,46.2,26.0,30.18,ENE,73,1.0,1.0,45,0.00,,,0.00,Wunderground v.1.15,2013-04-21 00:30:00,
2013-04-20 19:42:00,46.1,25.4,30.18,ESE,108,1.0,2.0,44,0.00,,,0.00,Wunderground v.1.15,2013-04-21 00:42:00,
2013-04-20 19:50:00,45.8,25.6,30.18,ESE,110,1.0,1.0,45,0.00,,,0.00,Wunderground v.1.15,2013-04-21 00:50:00,
2013-04-20 19:55:00,45.7,25.5,30.18,ESE,117,1.0,2.0,45,0.00,,,0.00,Wunderground v.1.15,2013-04-21 00:55:00,
2013-04-20 20:01:00,45.6,25.5,30.19,ENE,77,1.0,3.0,45,0.00,,,0.00,Wunderground v.1.15,2013-04-21 01:01:00,
2013-04-20 20:10:00,45.4,25.8,30.19,East,101,2.0,2.0,46,0.00,,,0.00,Wunderground v.1.15,2013-04-21 01:10:00,
2013-04-20 20:15:00,45.3,25.7,30.18,ESE,114,2.0,2.0,46,0.00,,,0.00,Wunderground v.1.15,2013-04-21 01:15:00,
2013-04-20 20:21:00,45.2,25.6,30.18,SE,131,1.0,1.0,46,0.00,,,0.00,Wunderground v.1.15,2013-04-21 01:21:00,
2013-04-20 20:30:00,45.1,25.5,30.18,ESE,108,2.0,2.0,46,0.00,,,0.00,Wunderground v.1.15,2013-04-21 01:30:00,
2013-04-20 20:41:00,44.9,25.9,30.18,SE,132,2.0,2.0,47,0.00,,,0.00,Wunderground v.1.15,2013-04-21 01:41:00,
2013-04-20 20:50:00,44.9,26.4,30.19,East,100,1.0,1.0,48,0.00,,,0.00,Wunderground v.1.15,2013-04-21 01:50:00,
2013-04-20 20:57:00,44.9,26.4,30.20,ESE,110,1.0,1.0,48,0.00,,,0.00,Wunderground v.1.15,2013-04-21 01:57:00,
2013-04-20 21:05:00,45.0,26.5,30.20,SE,142,1.0,1.0,48,0.00,,,0.00,Wunderground v.1.15,2013-04-21 02:05:00,
2013-04-20 21:12:00,45.0,26.5,30.20,ESE,111,1.0,3.0,48,0.00,,,0.00,Wunderground v.1.15,2013-04-21 02:12:00,
2013-04-20 21:20:00,45.0,27.0,30.21,SE,125,1.0,1.0,49,0.00,,,0.00,Wunderground v.1.15,2013-04-21 02:20:00,
2013-04-20 21:27:00,44.9,26.9,30.21,East,98,1.0,1.0,49,0.00,,,0.00,Wunderground v.1.15,2013-04-21 02:27:00,
2013-04-20 21:35:00,44.9,26.9,30.21,ESE,121,1.0,2.0,49,0.00,,,0.00,Wunderground v.1.15,2013-04-21 02:35:00,
2013-04-20 21:42:00,44.8,27.3,30.21,ESE,102,1.0,1.0,50,0.00,,,0.00,Wunderground v.1.15,2013-04-21 02:42:00,
2013-04-20 21:50:00,44.7,27.2,30.19,East,98,3.0,3.0,50,0.00,,,0.00,Wunderground v.1.15,2013-04-21 02:50:00,
2013-04-20 21:56:00,44.7,27.2,30.18,East,80,3.0,3.0,50,0.00,,,0.00,Wunderground v.1.15,2013-04-21 02:56:00,
2013-04-20 22:05:00,44.7,27.7,30.21,East,81,2.0,3.0,51,0.00,,,0.00,Wunderground v.1.15,2013-04-21 03:05:00,
2013-04-20 22:11:00,44.7,27.7,30.21,East,91,1.0,1.0,51,0.00,,,0.00,Wunderground v.1.15,2013-04-21 03:11:00,
2013-04-20 22:23:00,44.8,27.8,30.20,SE,124,1.0,1.0,51,0.00,,,0.00,Wunderground v.1.15,2013-04-21 03:23:00,
2013-04-20 22:30:00,45.0,27.9,30.20,ESE,117,1.0,1.0,51,0.00,,,0.00,Wunderground v.1.15,2013-04-21 03:30:00,
2013-04-20 22:37:00,45.0,27.9,30.20,East,98,1.0,3.0,51,0.00,,,0.00,Wunderground v.1.15,2013-04-21 03:37:00,
2013-04-20 22:45:00,45.1,28.5,30.20,East,83,2.0,2.0,52,0.00,,,0.00,Wunderground v.1.15,2013-04-21 03:45:00,
2013-04-20 22:50:00,45.2,28.1,30.19,East,101,2.0,3.0,51,0.00,,,0.00,Wunderground v.1.15,2013-04-21 03:50:00,
2013-04-20 22:55:00,45.3,28.2,30.18,SE,141,2.0,3.0,51,0.00,,,0.00,Wunderground v.1.15,2013-04-21 03:55:00,
2013-04-20 23:00:00,45.4,28.8,30.18,ESE,104,2.0,2.0,52,0.00,,,0.00,Wunderground v.1.15,2013-04-21 04:00:00,
2013-04-20 23:05:00,45.3,28.7,30.19,East,86,2.0,2.0,52,0.00,,,0.00,Wunderground v.1.15,2013-04-21 04:05:00,
2013-04-20 23:10:00,45.2,29.1,30.21,SE,124,2.0,2.0,53,0.00,,,0.00,Wunderground v.1.15,2013-04-21 04:10:00,
2013-04-20 23:15:00,45.1,29.0,30.21,SE,146,1.0,2.0,53,0.00,,,0.00,Wunderground v.1.15,2013-04-21 04:15:00,
2013-04-20 23:20:00,45.1,29.0,30.20,East,96,1.0,1.0,53,0.00,,,0.00,Wunderground v.1.15,2013-04-21 04:20:00,
2013-04-20 23:25:00,45.0,29.3,30.19,ESE,115,2.0,2.0,54,0.00,,,0.00,Wunderground v.1.15,2013-04-21 04:25:00,
2013-04-20 23:30:00,44.9,29.7,30.19,ESE,117,2.0,2.0,55,0.00,,,0.00,Wunderground v.1.15,2013-04-21 04:30:00,
2013-04-20 23:40:00,44.6,30.3,30.19,East,84,2.0,2.0,57,0.00,,,0.00,Wunderground v.1.15,2013-04-21 04:40:00,
2013-04-20 23:46:00,44.6,29.9,30.18,SE,132,2.0,2.0,56,0.00,,,0.00,Wunderground v.1.15,2013-04-21 04:46:00,
2013-04-20 23:55:00,44.5,29.8,30.18,SSE,150,2.0,6.0,56,0.00,,,0.00,Wunderground v.1.15,2013-04-21 04:55:00,